Weather History for Massena, NY

Change the Weather History Date:

Monday, December 31, 2012

  Actual Average Record
Temperature  
Mean Temperature 24 °F 16 °F  
Max Temperature 34 °F 26 °F 58 °F (1965)
Min Temperature 14 °F 7 °F -15 °F (1962)
Degree Days  
Heating Degree Days 41 49  
Month to date heating degree days 1179 1330  
Since 1 July heating degree days 2786 3099  
Moisture  
Dew Point 22 °F    
Average Humidity 82    
Maximum Humidity 92    
Minimum Humidity 72    
Precipitation  
Precipitation 0.02 in 0.07 in 0.39 in (2002)
Month to date precipitation 3.84 2.43  
Year to date precipitation 30.32 34.96  
Sea Level Pressure  
Sea Level Pressure 29.89 in    
Wind  
Wind Speed 9 mph (SW)    
Max Wind Speed 23 mph    
Max Gust Speed 28 mph    
Visibility 7 miles    
Events Snow    
T = Trace of Precipitation, MM = Missing Value Source: NWS Daily Summary

Daily Weather History Graph

Daily Weather History Graph

Search for Another Location

Airport:

Trip Planner

Search our weather history database for the weather conditions in past years. The results will help you decide how hot, cold, wet, or windy it might be!

Date:

Astronomy

Dec. 31, 2012 Rise Set
Actual Time 7:37 AM EST 4:28 PM EST
Civil Twilight 7:03 AM EST 5:01 PM EST
Nautical Twilight 6:26 AM EST 5:38 PM EST
Astronomical Twilight 5:51 AM EST 6:14 PM EST
Moon 8:05 PM EST (12/31) 9:09 AM EST (12/31)
Length of Visible Light 9h 57m
Length of Day
8h 50m
Waning Gibbous, 90% of the Moon is Illuminated
Dec 31
Waning Gibbous
Jan 4
Last Quarter
Jan 11
New
Jan 18
First Quarter
Jan 26
Full

Hourly Weather History & Observations

Time (EST) Temp. Windchill Dew Point Humidity Pressure Visibility Wind Dir Wind Speed Gust Speed Precip Events Conditions
12:37 AM 14.0 °F - 8.6 °F 79% 30.12 in 10.0 mi Calm Calm - N/A   Overcast
12:53 AM 15.1 °F - 9.0 °F 77% 30.14 in 7.0 mi Calm Calm - 0.00 in Snow Light Snow
1:53 AM 16.0 °F 10.4 °F 10.9 °F 81% 30.12 in 4.0 mi SW 3.5 mph - 0.00 in Snow Light Snow
2:13 AM 15.8 °F 8.6 °F 12.2 °F 86% 30.09 in 2.5 mi SW 4.6 mph - 0.00 in Snow Light Snow
2:27 AM 17.6 °F 12.3 °F 12.2 °F 79% 30.09 in 1.8 mi SW 3.5 mph - 0.00 in Snow Light Snow
2:35 AM 17.6 °F 10.7 °F 12.2 °F 79% 30.08 in 3.0 mi SSW 4.6 mph - 0.00 in Snow Light Snow
2:53 AM 17.1 °F - 12.9 °F 84% 30.11 in 5.0 mi Calm Calm - 0.00 in Snow Light Snow
3:53 AM 17.1 °F 11.7 °F 14.0 °F 88% 30.08 in 8.0 mi SSW 3.5 mph - 0.00 in Snow Light Snow
4:53 AM 19.9 °F 13.4 °F 15.1 °F 81% 30.06 in 10.0 mi SSW 4.6 mph - 0.00 in   Overcast
5:53 AM 21.0 °F 14.6 °F 17.1 °F 85% 30.04 in 10.0 mi SW 4.6 mph - 0.00 in   Overcast
6:53 AM 21.9 °F - 19.0 °F 89% 30.03 in 10.0 mi Calm Calm - N/A   Overcast
7:53 AM 21.0 °F - 18.0 °F 88% 30.02 in 10.0 mi Calm Calm - N/A   Overcast
8:53 AM 25.0 °F 15.5 °F 19.9 °F 81% 29.99 in 10.0 mi SSW 9.2 mph - N/A   Overcast
9:53 AM 28.0 °F 20.0 °F 21.9 °F 78% 29.99 in 10.0 mi SW 8.1 mph - N/A   Overcast
10:53 AM 28.9 °F 21.1 °F 23.0 °F 78% 29.97 in 10.0 mi SW 8.1 mph - N/A   Overcast
11:53 AM 30.0 °F 19.1 °F 23.0 °F 75% 29.92 in 9.0 mi SW 15.0 mph 21.9 mph 0.00 in   Overcast
12:53 PM 30.0 °F 20.5 °F 24.1 °F 79% 29.88 in 3.0 mi SW 11.5 mph - 0.02 in Snow Light Snow
1:14 PM 30.2 °F 20.8 °F 24.8 °F 80% 29.85 in 9.0 mi SSW 11.5 mph - 0.00 in   Overcast
1:53 PM 30.0 °F 20.0 °F 25.0 °F 82% 29.84 in 9.0 mi SSW 12.7 mph - 0.00 in   Overcast
2:26 PM 30.2 °F 20.2 °F 24.8 °F 80% 29.81 in 8.0 mi SW 12.7 mph - N/A   Overcast
2:53 PM 30.9 °F 19.8 °F 26.1 °F 82% 29.83 in 7.0 mi SSW 16.1 mph 23.0 mph N/A   Overcast
3:05 PM 30.2 °F 19.8 °F 26.6 °F 86% 29.80 in 7.0 mi SSW 13.8 mph - N/A   Overcast
3:53 PM 30.9 °F 19.4 °F 26.1 °F 82% 29.79 in 8.0 mi SSW 17.3 mph - N/A   Overcast
4:53 PM 32.0 °F 21.2 °F 26.1 °F 79% 29.77 in 10.0 mi SSW 16.1 mph - N/A   Overcast
5:53 PM 32.0 °F 21.2 °F 26.1 °F 79% 29.76 in 10.0 mi SW 16.1 mph - N/A   Overcast
6:53 PM 32.0 °F 20.8 °F 26.1 °F 79% 29.75 in 9.0 mi SSW 17.3 mph 24.2 mph N/A   Overcast
7:10 PM 30.2 °F 18.5 °F 26.6 °F 86% 29.72 in 10.0 mi SSW 17.3 mph - N/A   Overcast
7:53 PM 32.0 °F 22.1 °F 27.0 °F 82% 29.73 in 9.0 mi SW 13.8 mph - N/A   Overcast
8:53 PM 32.0 °F 23.0 °F 28.0 °F 85% 29.71 in 5.0 mi SW 11.5 mph - 0.00 in Snow Light Snow
9:12 PM 33.8 °F 24.8 °F 28.4 °F 81% 29.69 in 5.0 mi WSW 12.7 mph - 0.00 in Snow Light Snow
9:53 PM 33.8 °F 24.8 °F 28.4 °F 81% 29.69 in 8.0 mi WSW 12.7 mph 21.9 mph N/A   Overcast
10:04 PM 33.8 °F 24.3 °F 28.4 °F 81% 29.69 in 8.0 mi WSW 13.8 mph 24.2 mph N/A   Overcast
10:53 PM 34.0 °F 25.5 °F 28.0 °F 79% 29.71 in 6.0 mi WSW 11.5 mph 23.0 mph 0.00 in Snow Light Snow
11:32 PM 33.8 °F 25.3 °F 28.4 °F 81% 29.69 in 2.5 mi WSW 11.5 mph 20.7 mph 0.00 in Snow Light Snow
11:49 PM 33.8 °F 23.5 °F 28.4 °F 81% 29.70 in 5.0 mi West 16.1 mph 21.9 mph 0.00 in Snow Light Snow
11:53 PM 33.1 °F 23.4 °F 28.0 °F 82% 29.72 in 6.0 mi West 13.8 mph 21.9 mph 0.00 in   Haze